TAIFA-1 (56208 NORAD) Tracking and Keplerian Element Data

This shows tracking and keplerian element data for the satellite.

Feedback or suggestion? Click here.




ElementValue
Catalog56208
NameTAIFA-1
Epoch Orbit2099
Epoch Day239.13681025
Epoch Year2023
RAAN133.1569
Inclination97.3869
Eccentricity0.001457
Argument of Perigee111.6826
Mean Anonmoly248.5966
Mean Motion15.25389015
Decay Rate0.00010499
L11 56208U 23054AG 23239.13681025 .00010499 00000+0 41728-3 0 9997
L22 56208 97.3869 133.1569 0014570 111.6826 248.5966 15.25389015 20994



Live tracking and technical data element details for TAIFA-1 (NORAD 56208). TAIFA-1 can be tracked NOW for your location showing map with azimuth and elevation plus other details from your city location.







IsCatalogInMostPopularTable: catalog: 56208, numindb: 15
Update: records affected: 1



GetName: 56208 TAIFA-1

Hit Count: updated at: Thu, 28 Sep 2023 04:51:18 GMT